Regional Weather Roundup
Issued by NWS

Home | Current Version | Previous Version | Text Only | Print | Product List | Glossary On
Versions: 1 2 3 4 5 6 7 8 9 10 11 12 13 14 15 16 17 18 19 20 21 22 23 24 25 26 27 28 29 30 31 32 33 34 35 36 37 38 39 40 41 42 43 44 45 46 47 48 49 50
000
ASUS43 KIND 250009
RWRIN

WEATHER ROUNDUP FOR INDIANA
NATIONAL WEATHER SERVICE INDIANAPOLIS IN
700 PM EST MON NOV 24 2014

NOTE: "FAIR" INDICATES FEW OR NO CLOUDS BELOW 12,000 FEET WITH NO
SIGNIFICANT WEATHER AND/OR OBSTRUCTIONS TO VISIBILITY.

* - STATION DOES NOT REPORT WEATHER SUCH AS PRECIPITATION OR FOG.

+ - STATION NOT QUALITY CONTROLLED BY THE NATIONAL WEATHER SERVICE.
    USE DATA WITH CAUTION...ESPECIALLY DEWPOINT AND RELATIVE
    HUMIDITY OBSERVATIONS.

INZ001>003-010>013-019-020-250100-
NORTHWEST INDIANA

CITY           SKY/WX    TMP DP  RH WIND       PRES   REMARKS
GARY /AIRPORT/ CLOUDY    32  25  74 W28G48    29.66R WCI  18
KNOX *+        CLOUDY    32  28  86 SW22G32   29.68R WCI  19
LA PORTE +     CLOUDY    32  28  85 W25G37    29.67R WCI  19
6HR MIN TEMP:  32; 6HR MAX TEMP:  36;

MICHIGAN CITY+ CLOUDY    32  28  86 SW18G30   29.66R WCI  20
MONTICELLO +   CLOUDY    33  28  80 SW20G29   29.74R WCI  21
RENSSELAER +   CLOUDY    32  32 100 SW22G33   29.72R WCI  19
VALPARAISO     CLOUDY    30  27  88 SW20G33   29.69R WCI  17
6HR MIN TEMP:  30; 6HR MAX TEMP:  34; 6HR PCP: TRACE;


$$

LMZ046-743>745-250100-
SOUTHERN LAKE MICHIGAN

STATION/POSITION TIME  TEMP WIND        PRES
                       AIR  DIR/SP/G
                 (UTC) (F)  (DEG/KT/KT) (MB)
MICHIGAN CITY    0000   31  210/ 32/ 41   N/A

$$

INZ004-005-014>016-021>024-250100-
NORTH CENTRAL INDIANA

CITY           SKY/WX    TMP DP  RH WIND       PRES   REMARKS
ELKHART        CLOUDY    32  27  80 SW18G31   29.64R WCI  20
GOSHEN         CLOUDY    39  28  64 SW28G37   29.64R
6HR MIN TEMP:  37; 6HR MAX TEMP:  44; 6HR PCP: TRACE;

LOGANSPORT +   CLOUDY    32  28  86 SW30G39   29.75R WCI  18
PERU/GRISSOM   CLOUDY    34  30  86 W28G33    29.74R WCI  21
6HR MIN TEMP:  33; 6HR MAX TEMP:  37; 6HR PCP: TRACE;

ROCHESTER +    CLOUDY    34  30  86 SW24G33   29.71R WCI  21
SOUTH BEND     CLOUDY    32  32 100 SW29G41   29.64R WCI  18
6HR MIN TEMP:  32; 6HR MAX TEMP:  35; 6HR PCP: TRACE;

WARSAW +       CLOUDY    32  28  86 SW24G36   29.67R WCI  19

$$

INZ006>009-017-018-025>027-250100-
NORTHEAST INDIANA

CITY           SKY/WX    TMP DP  RH WIND       PRES   REMARKS
ANGOLA *+      CLOUDY    32  27  80 W25G43    29.62R WCI  19
FORT WAYNE     CLOUDY    35  28  75 SW26G40   29.71R WCI  22
6HR MIN TEMP:  35; 6HR MAX TEMP:  38; 6HR PCP: TRACE;

HUNTINGTON +   CLOUDY    34  28  78 W20G32    29.72R WCI  22
6HR MIN TEMP:  34; 6HR MAX TEMP:  37;


$$

INZ028-029-035-036-043>045-051>053-250100-
WEST CENTRAL INDIANA

CITY           SKY/WX    TMP DP  RH WIND       PRES   REMARKS
GREENCASTLE +  CLOUDY    36  30  80 SW8G17    29.81R
LAFAYETTE      CLOUDY    34  26  72 W17G29    29.77R WCI  23
6HR MIN TEMP:  33; 6HR MAX TEMP:  36; 6HR PCP: TRACE;

TERRE HAUTE    CLOUDY    38  28  67 W16G23    29.85R
6HR MIN TEMP:  38; 6HR MAX TEMP:  39; 6HR PCP: TRACE;


$$

INZ030>032-037>040-046>048-054>057-064-065-250100-
CENTRAL INDIANA

CITY           SKY/WX    TMP DP  RH WIND       PRES   REMARKS
CP ATTERBURY + MOCLDY    39  30  70 W15G28    29.83R
COLUMBUS       MOCLDY    39  30  70 SW20G28   29.83R
FRANKFORT +    CLOUDY    34  30  84 SW24G31   29.78R WCI  22
GREENWOOD *+   CLOUDY    39  25  56 W21G28    29.82
INDIANAPOLIS   CLOUDY    37  28  70 SW17      29.79R
6HR MIN TEMP:  37; 6HR MAX TEMP:  38; 6HR PCP: TRACE;

-EAGLE CREEK   CLOUDY    38  27  64 W16G23    29.79R
6HR MIN TEMP:  38; 6HR MAX TEMP:  39; 6HR PCP: TRACE;

KOKOMO *+      CLOUDY    34  27  75 W25G36    29.76R WCI  21
MARION +         N/A     33  28  81 W18G26    29.77R WCI  22
MT COMFORT *+  CLOUDY    37  23  56 SW21G30   29.81R
SHELBYVILLE    CLOUDY    40  30  67 W17G25    29.82R
6HR MIN TEMP:  40; 6HR MAX TEMP:  43;

ZIONSVILLE +   CLOUDY    36  28  73 W15G29    29.79R
6HR MIN TEMP:  36; 6HR MAX TEMP:  38;


$$

INZ033-034-041-042-049-050-058-059-250100-
EAST CENTRAL INDIANA

CITY           SKY/WX    TMP DP  RH WIND       PRES   REMARKS
MUNCIE         CLOUDY    38  30  73 W15G28    29.76R
6HR MIN TEMP:  38; 6HR MAX TEMP:  40; 6HR PCP: TRACE;


$$

INZ060-061-067>069-081>083-085>088-250100-
SOUTHWEST INDIANA

CITY           SKY/WX    TMP DP  RH WIND       PRES   REMARKS
EVANSVILLE     CLOUDY    46  36  68 W3        29.89R
6HR MIN TEMP:  45; 6HR MAX TEMP:  48;

HUNTINGBURG *+ CLOUDY    43  36  75 W3        29.89R
6HR MIN TEMP:  43; 6HR MAX TEMP:  46;

WASHINGTON +   CLOUDY    41  33  73 W7        29.89R
6HR MIN TEMP:  41; 6HR MAX TEMP:  44;


$$

INZ062-063-066-070>080-084-089>092-250100-
SOUTH CENTRAL AND SOUTHEAST INDIANA

CITY           SKY/WX    TMP DP  RH WIND       PRES   REMARKS
BLOOMINGTON    CLOUDY    39  28  64 W13G23    29.85R
6HR MIN TEMP:  39; 6HR MAX TEMP:  42; 6HR PCP: TRACE;


$$



USA.gov is the U.S. government's official web portal to all federal, state and local government web resources and services.